Location: Ladrillo (historical)
(32.8195°N, 117.2231°W)
Time: 10:03:05
(UTC+00:00)

Vanguard 3 - Pass Details

Date: 01 March 2021
Orbit: 508 x 3262 km, 33.3° (Epoch: 12 April)

Event Time Altitude Azimuth Distance (km) Brightness Sun altitude
Rises 19:01:05 0° 186° (S) 6,708 12.4 47.4°
Reaches altitude 10° 19:08:15 10° 168° (SSE) 6,019 12.5 48.0°
Maximum altitude 19:18:36 17° 135° (SE) 5,601 12.3 48.6°
Drops below altitude 10° 19:28:48 10° 103° (ESE) 6,014 11.9 49.2°
Sets 19:35:42 0° 86° (E) 6,715 11.9 49.5°
